Content
SEND FEEDBACK

Daily
Averages
Monthly
Summary
United States of America

ROCK HILL, NEW YORK


Home > North America > United States > New York
Elevation: 1260 feet     Latitude: 41 35N     Longitude: 074 37W

WEATHER
 
SELECT A DAY
Number of Records: 453,075;   Date Range: 1/1/95 - 11/26/14
 
SHARE

PRINT THIS DATA

[ ← Previous Day ]
WEATHER ALMANAC - APRIL 7, 2014
[ Next Day → ]
[ °C ]   °F
Weather ElementAverageHighLow
Temperature38.3 °F46.4 °F (11:15 am)30.2 °F (3:55 am)
Barometer30.03 in30.19 in (12:35 am)29.69 in (11:55 pm)
Wind Speed8.7 mph20.7 mph (4:35 pm)
Wind Gust24.2 mph (4:55 pm)
Weather ElementAverage
Visibility9.3 mi
Wind DirectionE (84.4 °)

Weather ElementTotal
Precipitation0.18 in
Heating Degree Days26.7 (Base 65)
Averaged from 70 records on April 7, 2014
WEATHER CONDITIONS BREAKOUT
WIND DIRECTION BREAKOUT
WEATHER BY HOUR - APRIL 7, 2014
[ °C ]   °F
Local TimeTemperatureDewpointHumidityBarometerVisibilityWind DirectionWind SpeedGust SpeedPrecipitationEventsConditions
12:35 AM33.8 °F0.0 °F30.19 in10.0 miESE (110°)4.6 mphClear
12:55 AM33.8 °F0.0 °F30.18 in10.0 miCalmClear
1:15 AM33.8 °F0.0 °F30.18 in10.0 miCalmClear
1:35 AM33.8 °F0.0 °F30.17 in10.0 miCalmClear
1:55 AM32.0 °F0.0 °F30.16 in10.0 miCalmClear
2:15 AM33.8 °F0.0 °F30.16 in10.0 miNNE (20°)4.6 mphClear
2:35 AM35.6 °F0.0 °F30.16 in10.0 miCalmClear
2:55 AM33.8 °F0.0 °F30.15 in10.0 miNNE (20°)3.5 mphClear
3:15 AM33.8 °F0.0 °F30.14 in10.0 miCalmClear
3:35 AM33.8 °F0.0 °F30.14 in10.0 miNNE (30°)4.6 mphClear
3:55 AM30.2 °F0.0 °F30.15 in10.0 miCalmClear
4:15 AM30.2 °F0.0 °F30.14 in10.0 miCalmClear
4:35 AM33.8 °F0.0 °F30.14 in10.0 miCalmClear
4:55 AM30.2 °F0.0 °F30.14 in10.0 miCalmClear
5:15 AM32.0 °F0.0 °F30.14 in10.0 miCalmClear
5:35 AM30.2 °F0.0 °F30.14 in10.0 miENE (60°)3.5 mphClear
5:55 AM30.2 °F0.0 °F30.13 in10.0 miENE (70°)4.6 mphClear
6:15 AM32.0 °F0.0 °F30.13 in10.0 miEast (80°)4.6 mphClear
6:35 AM33.8 °F0.0 °F30.13 in10.0 miCalmClear
6:55 AM33.8 °F0.0 °F30.14 in10.0 miESE (110°)3.5 mphClear
7:15 AM33.8 °F0.0 °F30.15 in10.0 miEast (90°)3.5 mphClear
7:35 AM35.6 °F0.0 °F30.16 in10.0 miEast (90°)3.5 mphClear
7:55 AM35.6 °F0.0 °F30.15 in10.0 miEast (90°)5.8 mphClear
8:15 AM37.4 °F0.0 °F30.16 in10.0 miEast (100°)5.8 mphClear
8:35 AM37.4 °F0.0 °F30.16 in10.0 miEast (90°)5.8 mphClear
8:55 AM39.2 °F0.0 °F30.15 in10.0 miEast (80°)5.8 mphClear
9:15 AM39.2 °F0.0 °F30.15 in10.0 miEast (90°)4.6 mphClear
9:35 AM42.8 °F0.0 °F30.15 in10.0 miEast (100°)6.9 mphClear
9:55 AM42.8 °F0.0 °F30.15 in10.0 miEast (100°)6.9 mphClear
10:15 AM44.6 °F0.0 °F30.16 in10.0 miESE (110°)6.9 mphClear
10:35 AM44.6 °F0.0 °F30.16 in10.0 miEast (100°)5.8 mphClear
10:55 AM44.6 °F0.0 °F30.16 in10.0 miSE (130°)5.8 mphClear
11:15 AM46.4 °F0.0 °F30.15 in10.0 miSSE (150°)11.5 mphClear
11:35 AM46.4 °F0.0 °F30.14 in10.0 miSE (140°)11.5 mphClear
11:55 AM46.4 °F0.0 °F30.12 in10.0 miSE (130°)16.1 mphClear
12:15 PM46.4 °F0.0 °F30.12 in10.0 miSSE (150°)12.7 mphClear
12:35 PM46.4 °F0.0 °F30.11 in10.0 miSE (130°)15.0 mph19.6 mphPartly Cloudy
12:55 PM46.4 °F0.0 °F30.12 in10.0 miSSE (150°)13.8 mph18.4 mphPartly Cloudy
1:15 PM46.4 °F0.0 °F30.10 in10.0 miSE (140°)12.7 mph19.6 mphPartly Cloudy
1:35 PM46.4 °F0.0 °F30.08 in10.0 miSE (130°)13.8 mphPartly Cloudy
1:55 PM46.4 °F0.0 °F30.06 in10.0 miSE (130°)13.8 mphClear
2:15 PM46.4 °F0.0 °F30.04 in10.0 miSE (140°)19.6 mph23.0 mphPartly Cloudy
2:35 PM46.4 °F0.0 °F30.04 in10.0 miSE (130°)12.7 mphMostly Cloudy
2:55 PM46.4 °F0.0 °F30.01 in10.0 miSE (130°)12.7 mphOvercast
3:15 PM46.4 °F0.0 °F29.99 in10.0 miESE (110°)12.7 mph17.3 mphOvercast
3:35 PM46.4 °F0.0 °F30.00 in10.0 miESE (110°)9.2 mphOvercast
4:15 PM46.4 °F0.0 °F29.98 in10.0 miESE (110°)10.4 mph17.3 mphOvercast
4:35 PM44.6 °F0.0 °F29.97 in10.0 miESE (120°)20.7 mphOvercast
4:55 PM42.8 °F0.0 °F29.95 in10.0 miSE (140°)20.7 mph24.2 mphOvercast
5:15 PM41.0 °F0.0 °F29.95 in10.0 miESE (110°)12.7 mph21.9 mphOvercast
5:35 PM39.2 °F0.0 °F29.95 in10.0 miESE (110°)10.4 mphOvercast
5:55 PM37.4 °F0.0 °F29.94 in10.0 miESE (110°)10.4 mphOvercast
6:15 PM37.4 °F0.0 °F29.92 in10.0 miESE (110°)12.7 mph16.1 mph0.02 inOvercast
6:35 PM37.4 °F0.0 °F29.90 in10.0 miEast (100°)12.7 mph19.6 mph0.02 inOvercast
6:55 PM37.4 °F0.0 °F29.91 in10.0 miEast (100°)11.5 mph0.02 inOvercast
7:15 PM35.6 °F0.0 °F29.89 in5.0 miEast (100°)12.7 mph20.7 mph0.01 inOvercast
7:35 PM35.6 °F0.0 °F29.88 in5.0 miEast (90°)12.7 mph18.4 mph0.02 inOvercast
7:55 PM35.6 °F0.0 °F29.86 in4.0 miEast (100°)16.1 mph19.6 mph0.02 inOvercast
8:15 PM35.6 °F0.0 °F29.86 in5.0 miEast (100°)13.8 mph18.4 mph0.01 inOvercast
8:35 PM35.6 °F0.0 °F29.85 in7.0 miEast (90°)15.0 mph23.0 mph0.01 inOvercast
8:55 PM35.6 °F0.0 °F29.85 in8.0 miEast (90°)13.8 mph0.02 inOvercast
9:15 PM35.6 °F0.0 °F29.83 in9.0 miEast (80°)13.8 mphOvercast
9:35 PM35.6 °F0.0 °F29.81 in8.0 miEast (80°)16.1 mph21.9 mphOvercast
9:55 PM35.6 °F0.0 °F29.80 in8.0 miEast (90°)12.7 mph19.6 mphOvercast
10:15 PM35.6 °F0.0 °F29.76 in9.0 miEast (90°)11.5 mph20.7 mph0.01 inOvercast
10:35 PM35.6 °F0.0 °F29.74 in5.0 miEast (90°)15.0 mph21.9 mph0.01 inOvercast
10:55 PM35.6 °F0.0 °F29.72 in9.0 miEast (80°)16.1 mph20.7 mph0.01 inOvercast
11:15 PM35.6 °F0.0 °F29.72 in9.0 miEast (100°)12.7 mphOvercast
11:35 PM37.4 °F0.0 °F29.71 in8.0 miEast (90°)10.4 mphOvercast
11:55 PM37.4 °F0.0 °F29.69 in3.0 miEast (90°)9.2 mphOvercast
Hourly data recorded from KMSV, located miles away from Rock Hill, New York







STORIES FROM OUR PARTNERS